Weather History for Angel Fire, NM

Change the Weather History Date:

Friday, February 28, 2014

  Actual Average (KSKX) Record (KSKX)
Temperature  
Mean Temperature 34 °F -  
Max Temperature 41 °F 42 °F 64 °F (2006)
Min Temperature 28 °F 17 °F 3 °F (1998)
Degree Days  
Heating Degree Days 30    
Moisture  
Dew Point 23 °F    
Average Humidity 67    
Maximum Humidity 87    
Minimum Humidity 46    
Precipitation  
Precipitation 0.09 in - - ()
Sea Level Pressure  
Sea Level Pressure 29.94 in    
Wind  
Wind Speed 16 mph (WSW)    
Max Wind Speed 31 mph    
Max Gust Speed 46 mph    
Visibility 8 miles    
Events Snow    
Averages and records for this station are not official NWS values.
T = Trace of Precipitation, MM = Missing Value Source: NWS Daily Summary

Daily Weather History Graph

Daily Weather History Graph

Search for Another Location

Airport:

Trip Planner

Search our weather history database for the weather conditions in past years. The results will help you decide how hot, cold, wet, or windy it might be!

Date:

Astronomy

Feb. 28, 2014 Rise Set
Actual Time 6:32 AM MST 5:54 PM MST
Civil Twilight 6:07 AM MST 6:20 PM MST
Nautical Twilight 5:37 AM MST 6:50 PM MST
Astronomical Twilight 5:07 AM MST 7:20 PM MST
Moon 5:48 AM MST (2/28) 5:34 PM MST (2/28)
Length of Visible Light 12h 13m
Length of Day
11h 22m
Waning Crescent, 0% of the Moon is Illuminated
Feb 28
Waning Crescent
Mar 1
New
Mar 8
First Quarter
Mar 16
Full
Mar 23
Last Quarter

Hourly Weather History & Observations

Time (MST) Temp. Windchill Dew Point Humidity Pressure Visibility Wind Dir Wind Speed Gust Speed Precip Events Conditions
12:15 AM 30.2 °F 17.1 °F 25.2 °F 82% 29.77 in 1.5 mi West 21.9 mph 34.5 mph N/A Snow Light Snow
12:35 AM 29.7 °F 16.4 °F 25.7 °F 85% 29.77 in 1.5 mi West 21.9 mph 34.5 mph N/A Snow Light Snow
12:55 AM 29.8 °F 17.0 °F 25.7 °F 85% 29.78 in 2.0 mi WSW 20.7 mph 27.6 mph N/A Snow Light Snow
1:15 AM 29.8 °F 16.0 °F 26.1 °F 86% 29.79 in 1.2 mi West 24.2 mph 31.1 mph N/A Snow Light Snow
1:35 AM 29.8 °F 18.9 °F 26.4 °F 87% 29.80 in 2.0 mi West 15.0 mph 26.5 mph N/A Snow Light Snow
1:55 AM 30.0 °F 18.3 °F 25.7 °F 84% 29.79 in 4.0 mi West 17.3 mph 34.5 mph N/A Snow Light Snow
2:15 AM 29.7 °F 15.8 °F 25.0 °F 83% 29.79 in 5.0 mi WSW 24.2 mph 27.6 mph N/A   Scattered Clouds
2:35 AM 29.7 °F 16.7 °F 25.2 °F 83% 29.80 in 4.0 mi WSW 20.7 mph 28.8 mph N/A   Clear
2:55 AM 30.0 °F 19.1 °F 24.8 °F 81% 29.80 in 10.0 mi West 15.0 mph - N/A   Mostly Cloudy
3:15 AM 30.0 °F 20.0 °F 24.3 °F 79% 29.80 in 10.0 mi West 12.7 mph 23.0 mph N/A   Mostly Cloudy
3:35 AM 29.1 °F 20.6 °F 23.7 °F 80% 29.81 in 10.0 mi West 9.2 mph 12.7 mph N/A   Scattered Clouds
3:55 AM 29.1 °F 19.4 °F 23.5 °F 80% 29.82 in 10.0 mi WSW 11.5 mph - N/A   Clear
4:15 AM 28.9 °F 19.8 °F 23.7 °F 81% 29.82 in 10.0 mi WSW 10.4 mph - N/A   Mostly Cloudy
4:35 AM 29.3 °F 25.6 °F 23.9 °F 80% 29.84 in 7.0 mi WSW 3.5 mph - N/A Snow Light Snow
4:55 AM 29.3 °F 19.1 °F 24.4 °F 82% 29.85 in 3.0 mi WSW 12.7 mph 18.4 mph N/A Snow Light Snow
5:15 AM 29.1 °F 16.7 °F 24.8 °F 84% 29.87 in 2.0 mi WSW 18.4 mph 24.2 mph N/A Snow Light Snow
5:35 AM 28.9 °F 17.7 °F 24.1 °F 82% 29.88 in 4.0 mi WSW 15.0 mph 23.0 mph N/A Snow Light Snow
5:55 AM 28.9 °F 18.6 °F 23.9 °F 81% 29.89 in 5.0 mi WSW 12.7 mph 17.3 mph N/A Snow Light Snow
6:15 AM 28.9 °F 16.9 °F 23.9 °F 81% 29.90 in 5.0 mi WSW 17.3 mph 26.5 mph N/A Snow Light Snow
6:35 AM 28.9 °F 20.4 °F 23.7 °F 81% 29.91 in 5.0 mi WSW 9.2 mph 18.4 mph N/A   Haze
6:55 AM 28.4 °F 17.0 °F 23.0 °F 80% 29.92 in 7.0 mi WSW 15.0 mph 21.9 mph N/A   Overcast
7:15 AM 28.4 °F 15.8 °F 22.6 °F 79% 29.93 in 7.0 mi WSW 18.4 mph 23.0 mph N/A   Mostly Cloudy
7:35 AM 28.8 °F 19.0 °F 22.6 °F 78% 29.95 in 10.0 mi West 11.5 mph 18.4 mph N/A   Mostly Cloudy
7:55 AM 29.3 °F 18.2 °F 21.9 °F 74% 29.95 in 10.0 mi West 15.0 mph 26.5 mph N/A   Scattered Clouds
8:15 AM 29.1 °F 18.4 °F 21.7 °F 74% 29.95 in 10.0 mi West 13.8 mph 26.5 mph N/A   Clear
8:35 AM 30.9 °F 20.2 °F 21.7 °F 69% 29.97 in 10.0 mi West 15.0 mph 21.9 mph N/A   Clear
8:55 AM 31.6 °F 19.0 °F 21.2 °F 65% 29.97 in 10.0 mi WSW 21.9 mph 29.9 mph N/A   Clear
9:15 AM 31.3 °F 17.7 °F 21.9 °F 68% 29.98 in 3.0 mi WSW 25.3 mph 33.4 mph N/A   Haze
9:35 AM 32.2 °F 19.4 °F 20.3 °F 62% 29.99 in 10.0 mi WSW 23.0 mph 31.1 mph N/A   Clear
9:55 AM 32.9 °F 24.1 °F 19.6 °F 58% 30.00 in 10.0 mi WSW 11.5 mph 23.0 mph N/A   Clear
10:15 AM 33.3 °F 22.8 °F 19.6 °F 57% 30.00 in 10.0 mi WSW 16.1 mph 26.5 mph N/A   Clear
10:35 AM 34.3 °F 24.6 °F 19.8 °F 55% 30.00 in 10.0 mi WSW 15.0 mph 23.0 mph N/A   Clear
10:55 AM 35.1 °F 24.5 °F 19.2 °F 53% 30.00 in 10.0 mi WSW 18.4 mph 25.3 mph N/A   Clear
11:15 AM 35.8 °F 25.1 °F 18.5 °F 50% 30.01 in 10.0 mi WSW 19.6 mph 25.3 mph N/A   Clear
11:35 AM 36.1 °F 25.5 °F 20.5 °F 53% 30.00 in 10.0 mi WSW 19.6 mph 28.8 mph N/A   Clear
11:55 AM 36.5 °F 26.7 °F 20.7 °F 53% 30.00 in 10.0 mi WSW 17.3 mph 26.5 mph N/A   Clear
12:15 PM 37.4 °F 28.5 °F 21.9 °F 54% 29.99 in 10.0 mi West 15.0 mph 29.9 mph N/A   Clear
12:35 PM 37.9 °F 28.5 °F 22.3 °F 53% 29.98 in 10.0 mi WSW 17.3 mph 26.5 mph N/A   Clear
12:55 PM 38.3 °F 27.6 °F 22.6 °F 53% 29.97 in 10.0 mi WSW 23.0 mph 32.2 mph N/A   Clear
1:15 PM 39.0 °F 30.3 °F 23.7 °F 54% 29.95 in 10.0 mi West 16.1 mph 25.3 mph N/A   Clear
1:35 PM 39.6 °F 31.0 °F 23.4 °F 52% 29.94 in 10.0 mi WSW 16.1 mph 24.2 mph N/A   Clear
1:55 PM 41.0 °F 31.9 °F 22.6 °F 48% 29.93 in 10.0 mi WSW 19.6 mph 29.9 mph N/A   Clear
2:15 PM 41.9 °F 32.8 °F 23.4 °F 48% 29.93 in 10.0 mi West 20.7 mph 28.8 mph N/A   Clear
2:35 PM 41.9 °F 31.5 °F 22.3 °F 46% 29.93 in 10.0 mi WSW 27.6 mph 35.7 mph N/A   Clear
2:55 PM 41.5 °F 31.6 °F 22.5 °F 47% 29.93 in 10.0 mi West 24.2 mph 34.5 mph N/A   Clear
3:15 PM 41.0 °F 30.0 °F 22.3 °F 47% 29.93 in 10.0 mi WSW 28.8 mph 40.3 mph N/A   Clear
3:35 PM 41.0 °F 29.7 °F 22.3 °F 47% 29.93 in 10.0 mi WSW 31.1 mph 38.0 mph N/A   Clear
3:55 PM 41.2 °F 31.6 °F 22.6 °F 48% 29.95 in 10.0 mi WSW 21.9 mph 46.0 mph N/A   Clear
4:15 PM 39.6 °F 29.7 °F 21.0 °F 48% 29.96 in 10.0 mi West 20.7 mph 29.9 mph N/A   Clear
4:35 PM 38.7 °F 28.3 °F 23.0 °F 53% 29.98 in 10.0 mi WSW 21.9 mph 27.6 mph N/A   Clear
4:55 PM 38.3 °F 29.3 °F 23.2 °F 55% 29.99 in 10.0 mi WSW 16.1 mph 25.3 mph N/A   Clear
5:15 PM 37.9 °F 31.5 °F 23.7 °F 57% 30.00 in 10.0 mi WSW 9.2 mph - N/A   Mostly Cloudy
5:35 PM 37.9 °F 30.5 °F 24.1 °F 57% 30.01 in 10.0 mi SW 11.5 mph - N/A   Mostly Cloudy
5:55 PM 37.8 °F 31.8 °F 24.1 °F 58% 30.02 in 10.0 mi SW 8.1 mph - N/A   Overcast
6:15 PM 36.5 °F 31.0 °F 24.3 °F 61% 30.02 in 10.0 mi SSW 6.9 mph - N/A   Mostly Cloudy
6:35 PM 36.5 °F 30.3 °F 24.1 °F 61% 30.02 in 10.0 mi SSW 8.1 mph - N/A   Overcast
6:55 PM 36.5 °F 30.3 °F 23.9 °F 60% 30.03 in 10.0 mi SSW 8.1 mph - N/A   Overcast
7:15 PM 36.0 °F 29.0 °F 23.5 °F 61% 30.02 in 10.0 mi SSW 9.2 mph - N/A   Mostly Cloudy
7:35 PM 35.4 °F 27.8 °F 23.7 °F 62% 30.03 in 10.0 mi SSW 10.4 mph - N/A   Mostly Cloudy
7:55 PM 34.7 °F 28.1 °F 23.5 °F 64% 30.04 in 10.0 mi SW 8.1 mph - N/A   Scattered Clouds
8:15 PM 33.8 °F 27.0 °F 23.5 °F 66% 30.04 in 10.0 mi SW 8.1 mph - N/A   Clear
8:35 PM 33.8 °F 26.4 °F 23.4 °F 66% 30.04 in 10.0 mi SW 9.2 mph - N/A   Scattered Clouds
8:55 PM 32.0 °F 24.8 °F 24.4 °F 74% 30.04 in 10.0 mi SW 8.1 mph - N/A   Scattered Clouds
9:15 PM 32.4 °F 27.9 °F 25.9 °F 77% 30.04 in 10.0 mi WSW 4.6 mph - N/A   Mostly Cloudy
9:35 PM 32.4 °F - 25.5 °F 76% 30.04 in 10.0 mi Calm Calm - N/A   Mostly Cloudy
9:55 PM 33.1 °F 26.9 °F 26.2 °F 76% 30.04 in 10.0 mi WSW 6.9 mph - N/A   Overcast
10:15 PM 33.3 °F 27.1 °F 26.6 °F 77% 30.04 in 10.0 mi WSW 6.9 mph - N/A   Overcast
10:35 PM 32.5 °F 26.2 °F 27.7 °F 82% 30.03 in 10.0 mi WSW 6.9 mph - N/A   Overcast
10:55 PM 33.4 °F 26.6 °F 27.1 °F 78% 30.04 in 10.0 mi WSW 8.1 mph - N/A   Overcast
11:15 PM 34.7 °F 31.8 °F 26.6 °F 72% 30.04 in 10.0 mi South 3.5 mph - N/A   Overcast
11:35 PM 35.4 °F - 26.1 °F 69% 30.03 in 10.0 mi Calm Calm - N/A   Overcast
11:55 PM 33.4 °F 29.1 °F 26.4 °F 75% 30.02 in 10.0 mi WNW 4.6 mph - N/A   Mostly Cloudy